Weather History for Cut Bank, MT

Change the Weather History Date:

Friday, June 14, 2013

  Actual Average Record
Temperature  
Mean Temperature 52 °F 57 °F  
Max Temperature 63 °F 70 °F 94 °F (1933)
Min Temperature 41 °F 45 °F 33 °F (1969)
Degree Days  
Heating Degree Days 13 8  
Month to date heating degree days 135 131  
Since 1 June heating degree days 135 131  
Since 1 July heating degree days 8167 8419  
Cooling Degree Days 0 0  
Month to date cooling degree days 0 0  
Year to date cooling degree days 2 2  
Since 1 June cooling degree days 0 0  
Growing Degree Days 2 (Base 50)    
Moisture  
Dew Point 38 °F    
Average Humidity 58    
Maximum Humidity 76    
Minimum Humidity 39    
Precipitation  
Precipitation 0.02 in 0.09 in 0.75 in (1943)
Month to date precipitation 1.03 1.34  
Year to date precipitation 5.62 4.98  
Snow  
Snow 0.00 in - - ()
Snow Depth 0.00 in    
Sea Level Pressure  
Sea Level Pressure 29.93 in    
Wind  
Wind Speed 18 mph (West)    
Max Wind Speed 36 mph    
Max Gust Speed 44 mph    
Visibility 10 miles    
Events      
T = Trace of Precipitation, MM = Missing Value Source: NWS Daily Summary

Daily Weather History Graph

Daily Weather History Graph

Search for Another Location

Airport:

Trip Planner

Search our weather history database for the weather conditions in past years. The results will help you decide how hot, cold, wet, or windy it might be!

Date:

Astronomy

Jun. 14, 2013 Rise Set
Actual Time 5:26 AM MDT 9:33 PM MDT
Civil Twilight 4:44 AM MDT 10:15 PM MDT
Nautical Twilight 3:45 AM MDT 11:14 PM MDT
Astronomical Twilight 1:48 AM MDT 1:15 AM MDT
Moon 11:30 AM MDT (6/14) 12:18 AM MDT (6/14)
Length of Visible Light 17h 30m
Length of Day
16h 06m
Waxing Crescent, 31% of the Moon is Illuminated
Jun 14
Waxing Crescent
Jun 16
First Quarter
Jun 23
Full
Jun 29
Last Quarter
Jul 8
New

Hourly Weather History & Observations

Time (MDT) Temp. Windchill Dew Point Humidity Pressure Visibility Wind Dir Wind Speed Gust Speed Precip Events Conditions
12:56 AM 50.0 °F - 37.0 °F 61% 29.94 in 10.0 mi West 13.8 mph - N/A   Overcast
1:56 AM 45.0 °F 41.8 °F 37.9 °F 76% 29.94 in 10.0 mi North 5.8 mph - N/A   Clear
2:56 AM 44.1 °F 40.1 °F 37.9 °F 79% 29.93 in 10.0 mi WNW 6.9 mph - N/A   Mostly Cloudy
3:56 AM 45.0 °F 40.1 °F 37.0 °F 74% 29.93 in 10.0 mi West 9.2 mph - N/A   Overcast
4:56 AM 42.1 °F 36.6 °F 35.1 °F 76% 29.92 in 10.0 mi West 9.2 mph - N/A   Clear
5:56 AM 44.1 °F 38.1 °F 35.1 °F 71% 29.93 in 10.0 mi WNW 11.5 mph - N/A   Clear
6:56 AM 46.0 °F 41.9 °F 36.0 °F 68% 29.93 in 10.0 mi NW 8.1 mph - N/A   Clear
7:56 AM 52.0 °F - 39.9 °F 63% 29.91 in 10.0 mi NW 8.1 mph - N/A   Scattered Clouds
8:56 AM 52.0 °F - 39.0 °F 61% 29.93 in 10.0 mi WSW 6.9 mph - N/A   Mostly Cloudy
9:56 AM 55.0 °F - 37.9 °F 53% 29.93 in 10.0 mi WNW 8.1 mph - N/A   Mostly Cloudy
10:56 AM 54.0 °F - 43.0 °F 66% 29.94 in 10.0 mi West 12.7 mph - 0.02 in   Mostly Cloudy
11:56 AM 59.0 °F - 39.0 °F 48% 29.92 in 10.0 mi West 21.9 mph 32.2 mph N/A   Scattered Clouds
12:56 PM 62.1 °F - 37.0 °F 39% 29.89 in 10.0 mi West 26.5 mph 40.3 mph N/A   Partly Cloudy
1:56 PM 63.0 °F - 37.9 °F 40% 29.91 in 10.0 mi West 24.2 mph 41.4 mph N/A   Clear
2:56 PM 61.0 °F - 39.0 °F 44% 29.92 in 10.0 mi WSW 29.9 mph 39.1 mph N/A   Partly Cloudy
3:56 PM 59.0 °F - 37.9 °F 46% 29.92 in 10.0 mi WSW 28.8 mph 39.1 mph N/A   Clear
4:56 PM 60.1 °F - 37.0 °F 42% 29.92 in 10.0 mi West 29.9 mph 41.4 mph N/A   Clear
5:56 PM 60.1 °F - 37.0 °F 42% 29.92 in 10.0 mi WSW 27.6 mph 36.8 mph N/A   Clear
6:56 PM 57.9 °F - 37.0 °F 46% 29.93 in 10.0 mi WSW 29.9 mph 39.1 mph N/A   Clear
7:56 PM 55.0 °F - 37.0 °F 51% 29.92 in 10.0 mi West 23.0 mph 36.8 mph N/A   Clear
8:56 PM 53.1 °F - 37.9 °F 57% 29.94 in 10.0 mi West 23.0 mph 33.4 mph N/A   Clear
9:56 PM 51.1 °F - 37.0 °F 59% 29.95 in 10.0 mi West 23.0 mph 27.6 mph N/A   Scattered Clouds
10:56 PM 51.1 °F - 37.0 °F 59% 29.96 in 10.0 mi West 25.3 mph 31.1 mph N/A   Scattered Clouds
11:56 PM 50.0 °F - 37.9 °F 63% 29.95 in 10.0 mi West 21.9 mph 27.6 mph N/A   Scattered Clouds